Location: Lynch Observatory
(39.9540°N, 75.1861°W)
Time: 13:19:43
(UTC-04:00)

Envisat - Visible Passes

Search period start: 21 July 2018 00:00
Search period end: 31 July 2018 00:00
Orbit: 764 x 766 km, 98.2° (Epoch: 21 July)

Date Brightness Start Highest point End Pass type
(mag) Time Alt. Az. Time Alt. Az. Time Alt. Az.
22 Jul 5.7 21:35:41 10° WSW 21:38:25 14° W 21:41:09 10° WNW visible
23 Jul 4.8 20:56:50 10° SSW 21:01:22 33° W 21:05:56 10° NNW visible
25 Jul 5.6 21:23:38 10° SW 21:27:08 19° W 21:30:38 10° NW visible
26 Jul 4.3 20:45:22 10° SSW 20:50:08 41° W 20:54:58 10° NNW visible
28 Jul 5.3 21:11:51 10° SSW 21:15:52 23° W 21:19:54 10° NW visible
30 Jul 5.8 21:39:24 10° WSW 21:41:42 13° W 21:44:01 10° WNW visible
